AAY181 KABE-KPGD

Flight info

Callsign AAY181
Flight time 2h 40m
Altitude 36000
Route ETX LRP EMI GVE Q75 SLOJO Q103 PUPYY KYYUU LUBBR4
Aircraft A20N/M-SDE2E3FGHIRWXY/LB1

Departure

Time 2026-04-26 22:13
Airport Lehigh Valley International Airport (KABE)

Arrival

Time 2026-04-27 00:53
Airport Punta Gorda Airport (KPGD)
Time Latitude Longitude Altitude Speed Heading
2026-04-26 21:48 40.65269 -75.43622 395 ft 0 kts 135°
2026-04-26 22:06 40.65272 -75.43626 386 ft 2 kts 134°
2026-04-26 22:06 40.65283 -75.43640 389 ft 2 kts 138°
2026-04-26 22:06 40.65296 -75.43654 395 ft 2 kts 144°
2026-04-26 22:06 40.65311 -75.43664 389 ft 2 kts 169°
2026-04-26 22:07 40.65327 -75.43664 391 ft 2 kts 203°
2026-04-26 22:07 40.65338 -75.43648 392 ft 2 kts 240°
2026-04-26 22:07 40.65345 -75.43634 395 ft 1 kts 233°
2026-04-26 22:09 40.65341 -75.43641 395 ft 2 kts 234°
2026-04-26 22:09 40.65330 -75.43667 393 ft 4 kts 243°
2026-04-26 22:09 40.65318 -75.43709 393 ft 5 kts 255°
2026-04-26 22:09 40.65318 -75.43764 395 ft 13 kts 270°
2026-04-26 22:10 40.65255 -75.43920 394 ft 23 kts 230°
2026-04-26 22:10 40.65180 -75.44042 393 ft 16 kts 231°
2026-04-26 22:10 40.65102 -75.44172 394 ft 19 kts 232°
2026-04-26 22:10 40.65017 -75.44313 393 ft 22 kts 231°
2026-04-26 22:11 40.64923 -75.44465 400 ft 21 kts 232°
2026-04-26 22:11 40.64813 -75.44646 399 ft 23 kts 231°
2026-04-26 22:11 40.64714 -75.44809 398 ft 24 kts 231°
2026-04-26 22:11 40.64655 -75.44993 403 ft 22 kts 301°
2026-04-26 22:12 40.64726 -75.45015 401 ft 6 kts 44°
2026-04-26 22:12 40.64805 -75.44886 404 ft 50 kts 52°
2026-04-26 22:12 40.65229 -75.44198 393 ft 148 kts 51°
2026-04-26 22:12 40.66002 -75.42919 758 ft 194 kts 51°
2026-04-26 22:13 40.66918 -75.41473 1529 ft 217 kts 50°
2026-04-26 22:13 40.67932 -75.39941 2423 ft 227 kts 49°
2026-04-26 22:13 40.69209 -75.38600 3107 ft 243 kts 27°
2026-04-26 22:13 40.70881 -75.38117 3876 ft 255 kts 360°
2026-04-26 22:14 40.72620 -75.38678 4656 ft 264 kts 334°
2026-04-26 22:14 40.73993 -75.40309 5396 ft 271 kts 305°
2026-04-26 22:14 40.74765 -75.42566 6202 ft 273 kts 281°
2026-04-26 22:14 40.74600 -75.45024 6977 ft 277 kts 250°
2026-04-26 22:15 40.73499 -75.47116 7723 ft 282 kts 226°
2026-04-26 22:15 40.72083 -75.48921 8447 ft 285 kts 224°
2026-04-26 22:15 40.70559 -75.50610 9137 ft 288 kts 221°
2026-04-26 22:15 40.68960 -75.52247 9793 ft 294 kts 220°
2026-04-26 22:16 40.67372 -75.53977 10284 ft 302 kts 225°
2026-04-26 22:16 40.65783 -75.55889 10504 ft 317 kts 229°
2026-04-26 22:16 40.64337 -75.58130 10890 ft 321 kts 236°
2026-04-26 22:16 40.62979 -75.60441 11400 ft 324 kts 234°
2026-04-26 22:17 40.61382 -75.62591 11895 ft 336 kts 225°
2026-04-26 22:17 40.59581 -75.64612 12806 ft 343 kts 224°
2026-04-26 22:17 40.57712 -75.66585 13872 ft 346 kts 222°
2026-04-26 22:17 40.55760 -75.68495 14775 ft 353 kts 220°
2026-04-26 22:18 40.53703 -75.70316 15656 ft 360 kts 217°
2026-04-26 22:18 40.51527 -75.72006 16554 ft 366 kts 213°
2026-04-26 22:18 40.49223 -75.73517 17467 ft 373 kts 208°
2026-04-26 22:18 40.46795 -75.74797 18357 ft 380 kts 203°
2026-04-26 22:19 40.44235 -75.75800 19123 ft 387 kts 197°
2026-04-26 22:19 40.41563 -75.76459 19881 ft 394 kts 191°
2026-04-26 22:19 40.38809 -75.76717 20673 ft 399 kts 184°
2026-04-26 22:19 40.36013 -75.76529 21425 ft 406 kts 176°
2026-04-26 22:20 40.33202 -75.75938 22169 ft 411 kts 175°
2026-04-26 22:20 40.31316 -75.75837 22642 ft 409 kts 187°
2026-04-26 22:20 40.27699 -75.77008 23638 ft 402 kts 210°
2026-04-26 22:20 40.25405 -75.79027 24255 ft 396 kts 228°
2026-04-26 22:21 40.23718 -75.81824 24827 ft 390 kts 244°
2026-04-26 22:21 40.22594 -75.85032 25415 ft 388 kts 252°
2026-04-26 22:21 40.21694 -75.88365 26018 ft 389 kts 256°
2026-04-26 22:21 40.20899 -75.91750 26580 ft 390 kts 257°
2026-04-26 22:22 40.20133 -75.95178 27136 ft 393 kts 257°
2026-04-26 22:22 40.19360 -75.98618 27670 ft 395 kts 257°
2026-04-26 22:22 40.18566 -76.02070 28220 ft 397 kts 256°
2026-04-26 22:22 40.17747 -76.05539 28731 ft 400 kts 256°
2026-04-26 22:23 40.16913 -76.09005 29248 ft 402 kts 256°
2026-04-26 22:23 40.16063 -76.12498 29738 ft 404 kts 255°
2026-04-26 22:23 40.15203 -76.16015 30234 ft 406 kts 255°
2026-04-26 22:23 40.14343 -76.19533 30615 ft 408 kts 255°
2026-04-26 22:24 40.13471 -76.23030 31029 ft 410 kts 253°
2026-04-26 22:24 40.12328 -76.26459 31509 ft 412 kts 245°
2026-04-26 22:24 40.10803 -76.29649 32034 ft 414 kts 237°
2026-04-26 22:24 40.08897 -76.32475 32526 ft 417 kts 228°
2026-04-26 22:25 40.06776 -76.35067 32995 ft 417 kts 226°
2026-04-26 22:25 40.04589 -76.37553 33475 ft 417 kts 224°
2026-04-26 22:25 40.02375 -76.39983 33992 ft 415 kts 223°
2026-04-26 22:25 40.00166 -76.42378 34428 ft 413 kts 223°
2026-04-26 22:26 39.97957 -76.44774 34843 ft 411 kts 223°
2026-04-26 22:26 39.95763 -76.47165 35251 ft 409 kts 224°
2026-04-26 22:26 39.93594 -76.49541 35677 ft 406 kts 224°
2026-04-26 22:26 39.91473 -76.51874 36050 ft 405 kts 224°
2026-04-26 22:27 39.89299 -76.54273 36173 ft 406 kts 224°
2026-04-26 22:27 39.87154 -76.56640 36176 ft 402 kts 224°
2026-04-26 22:27 39.82905 -76.61324 36182 ft 400 kts 224°
2026-04-26 22:28 39.78663 -76.65993 36177 ft 399 kts 224°
2026-04-26 22:28 39.74447 -76.70623 36184 ft 398 kts 224°
2026-04-26 22:29 39.70207 -76.75270 36185 ft 398 kts 224°
2026-04-26 22:29 39.65976 -76.79899 36190 ft 397 kts 224°
2026-04-26 22:30 39.61748 -76.84518 36188 ft 397 kts 224°
2026-04-26 22:30 39.57520 -76.89128 36192 ft 396 kts 224°
2026-04-26 22:31 39.53304 -76.93720 36190 ft 396 kts 224°
2026-04-26 22:31 39.49011 -76.98135 36192 ft 398 kts 218°
2026-04-26 22:32 39.44361 -77.02069 36189 ft 399 kts 217°
2026-04-26 22:32 39.39656 -77.05881 36196 ft 399 kts 216°
2026-04-26 22:33 39.32618 -77.11540 36194 ft 398 kts 216°
2026-04-26 22:34 39.28687 -77.14709 36193 ft 398 kts 216°
2026-04-26 22:34 39.23229 -77.19109 36195 ft 397 kts 216°
2026-04-26 22:35 39.19324 -77.22254 36190 ft 397 kts 216°
2026-04-26 22:35 39.14632 -77.26025 36181 ft 397 kts 216°
2026-04-26 22:36 39.09958 -77.29777 36197 ft 396 kts 216°
2026-04-26 22:36 39.05269 -77.33534 36183 ft 396 kts 216°
2026-04-26 22:37 39.00597 -77.37270 36170 ft 395 kts 216°
2026-04-26 22:37 38.95931 -77.40997 36185 ft 395 kts 216°
2026-04-26 22:38 38.91294 -77.44695 36182 ft 394 kts 216°
2026-04-26 22:38 38.86623 -77.48414 36181 ft 394 kts 216°
2026-04-26 22:39 38.81973 -77.52111 36191 ft 393 kts 216°
2026-04-26 22:39 38.77322 -77.55803 36193 ft 393 kts 216°
2026-04-26 22:40 38.72655 -77.59501 36193 ft 393 kts 216°
2026-04-26 22:40 38.68013 -77.63173 36188 ft 392 kts 216°
2026-04-26 22:41 38.63394 -77.66822 36192 ft 392 kts 216°
2026-04-26 22:41 38.58770 -77.70469 36191 ft 387 kts 216°
2026-04-26 22:42 38.54222 -77.74046 36194 ft 382 kts 216°
2026-04-26 22:42 38.49693 -77.77610 36204 ft 381 kts 216°
2026-04-26 22:43 38.45189 -77.81151 36201 ft 380 kts 216°
2026-04-26 22:43 38.40676 -77.84690 36199 ft 380 kts 216°
2026-04-26 22:44 38.36175 -77.88215 36195 ft 380 kts 216°
2026-04-26 22:44 38.31690 -77.91722 36183 ft 379 kts 216°
2026-04-26 22:45 38.27187 -77.95238 36181 ft 379 kts 216°
2026-04-26 22:45 38.22691 -77.98743 36181 ft 379 kts 216°
2026-04-26 22:46 38.18190 -78.02246 36182 ft 379 kts 216°
2026-04-26 22:46 38.13695 -78.05739 36181 ft 379 kts 216°
2026-04-26 22:47 38.09197 -78.09230 36181 ft 379 kts 216°
2026-04-26 22:47 38.04721 -78.12699 36182 ft 379 kts 216°
2026-04-26 22:48 38.00326 -78.16346 36181 ft 376 kts 220°
2026-04-26 22:48 37.96116 -78.20289 36180 ft 376 kts 221°
2026-04-26 22:49 37.91940 -78.24285 36177 ft 376 kts 221°
2026-04-26 22:49 37.87790 -78.28261 36173 ft 376 kts 221°
2026-04-26 22:50 37.83609 -78.32250 36162 ft 376 kts 221°
2026-04-26 22:50 37.79424 -78.36233 36156 ft 376 kts 221°
2026-04-26 22:51 37.75251 -78.40196 36152 ft 375 kts 221°
2026-04-26 22:51 37.71067 -78.44164 36150 ft 375 kts 221°
2026-04-26 22:52 37.66919 -78.48093 36149 ft 375 kts 221°
2026-04-26 22:52 37.62738 -78.52047 36153 ft 375 kts 221°
2026-04-26 22:53 37.58549 -78.56003 36152 ft 375 kts 221°
2026-04-26 22:53 37.54400 -78.59915 36153 ft 375 kts 221°
2026-04-26 22:54 37.50229 -78.63844 36152 ft 374 kts 221°
2026-04-26 22:54 37.46053 -78.67770 36152 ft 374 kts 221°
2026-04-26 22:55 37.41888 -78.71681 36152 ft 373 kts 221°
2026-04-26 22:55 37.37723 -78.75586 36144 ft 373 kts 221°
2026-04-26 22:56 37.33562 -78.79483 36137 ft 372 kts 221°
2026-04-26 22:56 37.29398 -78.83377 36133 ft 372 kts 221°
2026-04-26 22:57 37.25270 -78.87231 36136 ft 372 kts 221°
2026-04-26 22:57 37.21110 -78.91110 36138 ft 371 kts 221°
2026-04-26 22:58 37.16956 -78.94978 36136 ft 371 kts 221°
2026-04-26 22:58 37.12806 -78.98838 36127 ft 371 kts 221°
2026-04-26 22:59 37.08656 -79.02691 36127 ft 371 kts 221°
2026-04-26 22:59 37.04541 -79.06506 36125 ft 370 kts 221°
2026-04-26 23:00 37.00398 -79.10343 36121 ft 370 kts 221°
2026-04-26 23:00 36.96259 -79.14171 36112 ft 370 kts 221°
2026-04-26 23:01 36.92121 -79.17991 36115 ft 369 kts 221°
2026-04-26 23:01 36.87986 -79.21804 36120 ft 369 kts 221°
2026-04-26 23:02 36.83879 -79.25588 36122 ft 370 kts 221°
2026-04-26 23:02 36.79735 -79.29400 36128 ft 370 kts 221°
2026-04-26 23:03 36.75583 -79.33214 36133 ft 371 kts 221°
2026-04-26 23:03 36.71427 -79.37025 36138 ft 371 kts 221°
2026-04-26 23:04 36.67265 -79.40836 36140 ft 372 kts 221°
2026-04-26 23:04 36.63088 -79.44657 36145 ft 372 kts 221°
2026-04-26 23:05 36.58908 -79.48475 36142 ft 373 kts 221°
2026-04-26 23:05 36.54749 -79.52268 36135 ft 373 kts 221°
2026-04-26 23:06 36.50558 -79.56086 36127 ft 374 kts 220°
2026-04-26 23:06 36.46350 -79.59914 36116 ft 374 kts 220°
2026-04-26 23:07 36.42146 -79.63733 36118 ft 375 kts 220°
2026-04-26 23:07 36.37931 -79.67557 36122 ft 375 kts 220°
2026-04-26 23:08 36.33709 -79.71382 36121 ft 376 kts 220°
2026-04-26 23:08 36.29478 -79.75209 36120 ft 377 kts 220°
2026-04-26 23:09 36.25267 -79.79014 36114 ft 377 kts 220°
2026-04-26 23:09 36.21015 -79.82849 36099 ft 378 kts 220°
2026-04-26 23:10 36.16760 -79.86683 36099 ft 378 kts 220°
2026-04-26 23:10 36.12498 -79.90516 36100 ft 379 kts 220°
2026-04-26 23:11 36.08224 -79.94356 36102 ft 379 kts 220°
2026-04-26 23:11 36.03788 -79.97861 36098 ft 385 kts 211°
2026-04-26 23:12 35.98849 -80.00534 36096 ft 388 kts 208°
2026-04-26 23:12 35.93822 -80.03015 36094 ft 390 kts 207°
2026-04-26 23:13 35.88762 -80.05475 36087 ft 390 kts 207°
2026-04-26 23:13 35.83707 -80.07948 36092 ft 391 kts 207°
2026-04-26 23:14 35.78659 -80.10431 36095 ft 391 kts 207°
2026-04-26 23:14 35.73622 -80.12910 36095 ft 392 kts 207°
2026-04-26 23:15 35.68547 -80.15404 36095 ft 393 kts 207°
2026-04-26 23:15 35.63467 -80.17896 36096 ft 393 kts 207°
2026-04-26 23:16 35.58386 -80.20385 36099 ft 394 kts 207°
2026-04-26 23:16 35.53287 -80.22878 36106 ft 394 kts 207°
2026-04-26 23:17 35.48188 -80.25369 36107 ft 395 kts 207°
2026-04-26 23:17 35.43078 -80.27862 36107 ft 395 kts 207°
2026-04-26 23:18 35.37986 -80.30342 36100 ft 396 kts 207°
2026-04-26 23:18 35.32863 -80.32834 36098 ft 396 kts 207°
2026-04-26 23:19 35.27729 -80.35328 36092 ft 397 kts 207°
2026-04-26 23:19 35.22620 -80.37807 36090 ft 397 kts 207°
2026-04-26 23:20 35.17467 -80.40303 36071 ft 398 kts 207°
2026-04-26 23:20 35.13176 -80.42379 36067 ft 398 kts 207°
2026-04-26 23:21 35.08022 -80.44870 36063 ft 399 kts 207°
2026-04-26 23:21 35.02855 -80.47364 36062 ft 399 kts 207°
2026-04-26 23:22 34.97671 -80.49862 36063 ft 400 kts 207°
2026-04-26 23:22 34.92513 -80.52345 36064 ft 401 kts 207°
2026-04-26 23:23 34.87311 -80.54845 36063 ft 402 kts 207°
2026-04-26 23:23 34.82114 -80.57339 36063 ft 402 kts 207°
2026-04-26 23:24 34.76891 -80.59843 36061 ft 403 kts 207°
2026-04-26 23:24 34.71659 -80.62347 36060 ft 403 kts 207°
2026-04-26 23:25 34.66428 -80.64848 36050 ft 404 kts 207°
2026-04-26 23:25 34.61135 -80.67128 36050 ft 408 kts 204°
2026-04-26 23:26 34.55656 -80.69144 36050 ft 409 kts 202°
2026-04-26 23:26 34.50225 -80.71101 36043 ft 410 kts 202°
2026-04-26 23:27 34.44769 -80.73099 36044 ft 410 kts 203°
2026-04-26 23:27 34.39298 -80.75124 36049 ft 410 kts 203°
2026-04-26 23:28 34.33833 -80.77152 36049 ft 411 kts 203°
2026-04-26 23:28 34.28355 -80.79181 36048 ft 412 kts 203°
2026-04-26 23:29 34.22870 -80.81208 36038 ft 412 kts 203°
2026-04-26 23:29 34.17377 -80.83234 36030 ft 413 kts 203°
2026-04-26 23:30 34.11925 -80.85243 36016 ft 413 kts 203°
2026-04-26 23:30 34.06414 -80.87271 36021 ft 413 kts 203°
2026-04-26 23:31 34.00899 -80.89298 36024 ft 414 kts 203°
2026-04-26 23:31 33.95387 -80.91320 36024 ft 414 kts 203°
2026-04-26 23:32 33.89867 -80.93343 36024 ft 415 kts 203°
2026-04-26 23:32 33.84346 -80.95363 36021 ft 415 kts 203°
2026-04-26 23:33 33.78811 -80.97386 36011 ft 415 kts 203°
2026-04-26 23:33 33.73312 -80.99393 35991 ft 415 kts 203°
2026-04-26 23:34 33.67779 -81.01410 35989 ft 416 kts 203°
2026-04-26 23:34 33.62234 -81.03428 35989 ft 416 kts 203°
2026-04-26 23:35 33.56691 -81.05443 35990 ft 416 kts 204°
2026-04-26 23:35 33.51141 -81.07458 35989 ft 416 kts 204°
2026-04-26 23:36 33.45624 -81.09458 35987 ft 417 kts 204°
2026-04-26 23:36 33.40076 -81.11467 35984 ft 417 kts 204°
2026-04-26 23:37 33.34505 -81.13481 35987 ft 421 kts 204°
2026-04-26 23:37 33.28846 -81.15531 35977 ft 427 kts 204°
2026-04-26 23:38 33.23137 -81.17587 35975 ft 428 kts 204°
2026-04-26 23:38 33.17469 -81.19624 35977 ft 427 kts 204°
2026-04-26 23:39 33.11773 -81.21670 35969 ft 427 kts 204°
2026-04-26 23:39 33.06086 -81.23711 35969 ft 427 kts 204°
2026-04-26 23:40 33.00394 -81.25753 35969 ft 426 kts 204°
2026-04-26 23:40 32.94704 -81.27791 35967 ft 426 kts 204°
2026-04-26 23:41 32.89021 -81.29824 35967 ft 426 kts 204°
2026-04-26 23:41 32.83379 -81.31839 35964 ft 425 kts 205°
2026-04-26 23:42 32.77709 -81.33862 35960 ft 425 kts 205°
2026-04-26 23:42 32.69207 -81.36889 35971 ft 425 kts 204°
2026-04-26 23:43 32.63548 -81.38901 35965 ft 424 kts 205°
2026-04-26 23:43 32.57891 -81.40909 35965 ft 424 kts 204°
2026-04-26 23:44 32.52235 -81.42915 35967 ft 423 kts 204°
2026-04-26 23:44 32.46622 -81.44902 35965 ft 423 kts 204°
2026-04-26 23:45 32.40984 -81.46896 35952 ft 422 kts 204°
2026-04-26 23:45 32.35353 -81.48885 35946 ft 422 kts 204°
2026-04-26 23:46 32.29733 -81.50867 35945 ft 421 kts 204°
2026-04-26 23:46 32.24111 -81.52847 35950 ft 421 kts 204°
2026-04-26 23:47 32.18524 -81.54813 35948 ft 420 kts 204°
2026-04-26 23:47 32.12913 -81.56785 35951 ft 420 kts 204°
2026-04-26 23:48 32.07304 -81.58753 35955 ft 419 kts 204°
2026-04-26 23:48 32.01713 -81.60713 35958 ft 419 kts 204°
2026-04-26 23:49 31.96129 -81.62667 35959 ft 418 kts 204°
2026-04-26 23:49 31.90551 -81.64617 35960 ft 418 kts 204°
2026-04-26 23:50 31.85005 -81.66554 35961 ft 417 kts 204°
2026-04-26 23:50 31.79436 -81.68496 35953 ft 417 kts 205°
2026-04-26 23:51 31.73881 -81.70430 35954 ft 416 kts 205°
2026-04-26 23:51 31.68319 -81.72365 35973 ft 416 kts 205°
2026-04-26 23:52 31.62794 -81.74284 35979 ft 415 kts 205°
2026-04-26 23:52 31.57237 -81.76213 35989 ft 415 kts 205°
2026-04-26 23:53 31.51700 -81.78132 35990 ft 415 kts 205°
2026-04-26 23:53 31.46158 -81.80050 35982 ft 414 kts 205°
2026-04-26 23:54 31.40677 -81.82086 35976 ft 409 kts 210°
2026-04-26 23:54 31.35455 -81.84598 35965 ft 407 kts 211°
2026-04-26 23:55 31.30236 -81.87173 35954 ft 407 kts 211°
2026-04-26 23:55 31.25005 -81.89761 35941 ft 407 kts 211°
2026-04-26 23:56 31.19778 -81.92345 35929 ft 408 kts 211°
2026-04-26 23:56 31.14542 -81.94931 35926 ft 408 kts 210°
2026-04-26 23:57 31.09344 -81.97496 35928 ft 408 kts 210°
2026-04-26 23:57 31.04104 -82.00079 35931 ft 408 kts 210°
2026-04-26 23:58 30.98870 -82.02655 35937 ft 409 kts 210°
2026-04-26 23:58 30.93620 -82.05236 35953 ft 409 kts 210°
2026-04-26 23:59 30.88362 -82.07818 35975 ft 410 kts 210°
2026-04-26 23:59 30.83138 -82.10380 36001 ft 410 kts 210°
2026-04-27 00:00 30.77880 -82.12954 36009 ft 404 kts 210°
2026-04-27 00:00 30.72655 -82.15514 36029 ft 411 kts 210°
2026-04-27 00:01 30.67365 -82.18100 36042 ft 412 kts 210°
2026-04-27 00:01 30.61814 -82.20070 36047 ft 426 kts 195°
2026-04-27 00:02 30.55879 -82.20811 36047 ft 430 kts 192°
2026-04-27 00:02 30.49942 -82.21460 35954 ft 435 kts 192°
2026-04-27 00:03 30.46911 -82.21800 35696 ft 440 kts 192°
2026-04-27 00:03 30.43836 -82.22144 35440 ft 442 kts 192°
2026-04-27 00:03 30.40769 -82.22487 35190 ft 442 kts 192°
2026-04-27 00:03 30.37705 -82.22831 34940 ft 442 kts 192°
2026-04-27 00:04 30.34676 -82.23172 34698 ft 443 kts 192°
2026-04-27 00:04 30.31599 -82.23519 34457 ft 443 kts 191°
2026-04-27 00:04 30.28515 -82.23866 34209 ft 444 kts 191°
2026-04-27 00:04 30.25443 -82.24212 33956 ft 444 kts 191°
2026-04-27 00:05 30.22366 -82.24559 33684 ft 445 kts 191°
2026-04-27 00:05 30.19306 -82.24903 33414 ft 446 kts 191°
2026-04-27 00:05 30.16206 -82.25156 33140 ft 450 kts 185°
2026-04-27 00:05 30.13059 -82.24962 32879 ft 455 kts 179°
2026-04-27 00:06 30.09906 -82.24578 32626 ft 456 kts 178°
2026-04-27 00:06 30.06740 -82.24160 32361 ft 457 kts 178°
2026-04-27 00:06 30.03588 -82.23742 32105 ft 457 kts 178°
2026-04-27 00:06 30.01491 -82.23467 31936 ft 457 kts 178°
2026-04-27 00:07 29.98332 -82.23054 31675 ft 457 kts 178°
2026-04-27 00:07 29.95166 -82.22643 31413 ft 457 kts 178°
2026-04-27 00:07 29.92005 -82.22235 31168 ft 457 kts 178°
2026-04-27 00:07 29.88844 -82.21827 30917 ft 457 kts 178°
2026-04-27 00:08 29.85680 -82.21419 30673 ft 456 kts 178°
2026-04-27 00:08 29.82533 -82.21014 30432 ft 454 kts 178°
2026-04-27 00:08 29.79401 -82.20611 30198 ft 452 kts 178°
2026-04-27 00:08 29.76287 -82.20211 29950 ft 449 kts 178°
2026-04-27 00:09 29.73187 -82.19813 29665 ft 447 kts 178°
2026-04-27 00:09 29.70093 -82.19416 29400 ft 446 kts 178°
2026-04-27 00:09 29.67060 -82.19028 29137 ft 444 kts 177°
2026-04-27 00:09 29.63988 -82.18635 28859 ft 442 kts 177°
2026-04-27 00:10 29.60928 -82.18243 28590 ft 441 kts 177°
2026-04-27 00:10 29.57889 -82.17856 28329 ft 439 kts 177°
2026-04-27 00:10 29.54844 -82.17472 28062 ft 437 kts 177°
2026-04-27 00:10 29.51828 -82.17091 27803 ft 436 kts 177°
2026-04-27 00:11 29.48824 -82.16712 27543 ft 434 kts 177°
2026-04-27 00:11 29.45830 -82.16335 27285 ft 432 kts 177°
2026-04-27 00:11 29.42839 -82.15959 27030 ft 430 kts 177°
2026-04-27 00:11 29.39869 -82.15585 26786 ft 428 kts 177°
2026-04-27 00:12 29.36951 -82.15218 26544 ft 426 kts 177°
2026-04-27 00:12 29.34009 -82.14848 26300 ft 424 kts 177°
2026-04-27 00:12 29.31077 -82.14480 26052 ft 422 kts 177°
2026-04-27 00:12 29.28164 -82.14115 25821 ft 420 kts 177°
2026-04-27 00:13 29.25261 -82.13750 25580 ft 418 kts 177°
2026-04-27 00:13 29.22379 -82.13389 25343 ft 416 kts 177°
2026-04-27 00:13 29.19510 -82.13030 25110 ft 414 kts 177°
2026-04-27 00:13 29.16652 -82.12758 24879 ft 410 kts 180°
2026-04-27 00:14 29.13806 -82.12655 24646 ft 408 kts 182°
2026-04-27 00:14 29.11004 -82.12594 24422 ft 406 kts 182°
2026-04-27 00:14 29.08152 -82.12538 24190 ft 404 kts 182°
2026-04-27 00:14 29.05376 -82.12483 23973 ft 402 kts 182°
2026-04-27 00:15 29.02580 -82.12427 23746 ft 401 kts 182°
2026-04-27 00:15 28.99800 -82.12370 23516 ft 399 kts 182°
2026-04-27 00:15 28.97027 -82.12313 23253 ft 397 kts 182°
2026-04-27 00:15 28.94257 -82.12256 22994 ft 396 kts 182°
2026-04-27 00:16 28.91502 -82.12198 22732 ft 395 kts 182°
2026-04-27 00:16 28.88764 -82.12141 22473 ft 393 kts 182°
2026-04-27 00:16 28.86032 -82.12084 22212 ft 392 kts 182°
2026-04-27 00:16 28.83332 -82.12028 21962 ft 391 kts 182°
2026-04-27 00:17 28.80614 -82.11971 21706 ft 390 kts 182°
2026-04-27 00:17 28.77903 -82.11915 21457 ft 389 kts 182°
2026-04-27 00:17 28.75198 -82.11859 21201 ft 387 kts 182°
2026-04-27 00:17 28.72509 -82.11802 20956 ft 386 kts 181°
2026-04-27 00:18 28.69825 -82.11746 20699 ft 384 kts 181°
2026-04-27 00:18 28.67183 -82.11573 20441 ft 378 kts 177°
2026-04-27 00:18 28.64599 -82.11243 20103 ft 370 kts 175°
2026-04-27 00:18 28.62052 -82.10880 19606 ft 367 kts 175°
2026-04-27 00:19 28.59517 -82.10513 19098 ft 366 kts 175°
2026-04-27 00:19 28.56999 -82.10150 18585 ft 365 kts 175°
2026-04-27 00:19 28.54476 -82.09786 18051 ft 364 kts 175°
2026-04-27 00:19 28.51972 -82.09427 17511 ft 362 kts 175°
2026-04-27 00:20 28.49481 -82.09060 16975 ft 360 kts 173°
2026-04-27 00:20 28.47026 -82.08528 16526 ft 356 kts 170°
2026-04-27 00:20 28.44647 -82.07931 16049 ft 353 kts 169°
2026-04-27 00:20 28.42257 -82.07315 15570 ft 351 kts 169°
2026-04-27 00:21 28.39877 -82.06702 15085 ft 349 kts 169°
2026-04-27 00:21 28.37509 -82.06093 14605 ft 347 kts 169°
2026-04-27 00:21 28.35155 -82.05489 14128 ft 346 kts 169°
2026-04-27 00:21 28.32811 -82.04889 13640 ft 344 kts 169°
2026-04-27 00:22 28.30469 -82.04297 13161 ft 346 kts 170°
2026-04-27 00:22 28.28080 -82.03846 12891 ft 350 kts 173°
2026-04-27 00:22 28.25691 -82.03476 12730 ft 350 kts 174°
2026-04-27 00:22 28.23275 -82.03116 12594 ft 349 kts 174°
2026-04-27 00:23 28.20869 -82.02758 12452 ft 348 kts 174°
2026-04-27 00:23 28.18466 -82.02400 12306 ft 347 kts 173°
2026-04-27 00:23 28.16069 -82.02042 12164 ft 346 kts 173°
2026-04-27 00:23 28.13679 -82.01729 11948 ft 345 kts 178°
2026-04-27 00:24 28.11318 -82.02008 11697 ft 341 kts 197°
2026-04-27 00:24 28.09137 -82.03033 11459 ft 338 kts 208°
2026-04-27 00:24 28.07067 -82.04288 11223 ft 337 kts 210°
2026-04-27 00:24 28.05017 -82.05575 10982 ft 336 kts 211°
2026-04-27 00:25 28.02970 -82.06853 10744 ft 336 kts 210°
2026-04-27 00:25 28.00925 -82.08119 10508 ft 335 kts 210°
2026-04-27 00:25 27.98877 -82.09378 10275 ft 334 kts 210°
2026-04-27 00:25 27.96853 -82.10619 10045 ft 334 kts 210°
2026-04-27 00:26 27.94818 -82.11863 9811 ft 327 kts 209°
2026-04-27 00:26 27.92861 -82.13056 9561 ft 312 kts 209°
2026-04-27 00:26 27.90986 -82.14199 9311 ft 302 kts 209°
2026-04-27 00:26 27.89145 -82.15321 9063 ft 300 kts 210°
2026-04-27 00:27 27.87336 -82.16424 8816 ft 299 kts 210°
2026-04-27 00:27 27.85508 -82.17537 8562 ft 298 kts 210°
2026-04-27 00:27 27.83690 -82.18644 8309 ft 295 kts 210°
2026-04-27 00:27 27.81877 -82.19748 8071 ft 296 kts 210°
2026-04-27 00:28 27.80069 -82.20847 7825 ft 294 kts 210°
2026-04-27 00:28 27.78277 -82.21947 7580 ft 292 kts 211°
2026-04-27 00:28 27.76600 -82.23228 7331 ft 289 kts 220°
2026-04-27 00:28 27.75063 -82.24675 7101 ft 287 kts 223°
2026-04-27 00:29 27.73559 -82.26160 6866 ft 286 kts 223°
2026-04-27 00:29 27.72067 -82.27640 6628 ft 285 kts 223°
2026-04-27 00:29 27.70581 -82.29111 6400 ft 283 kts 223°
2026-04-27 00:29 27.69121 -82.30553 6153 ft 281 kts 223°
2026-04-27 00:30 27.67654 -82.31999 5902 ft 280 kts 223°
2026-04-27 00:30 27.66182 -82.33450 5654 ft 279 kts 223°
2026-04-27 00:30 27.64718 -82.34889 5410 ft 278 kts 223°
2026-04-27 00:30 27.63218 -82.36258 5166 ft 278 kts 217°
2026-04-27 00:31 27.61507 -82.37292 4935 ft 279 kts 202°
2026-04-27 00:31 27.59615 -82.37804 4816 ft 282 kts 187°
2026-04-27 00:31 27.57657 -82.37752 4700 ft 283 kts 173°
2026-04-27 00:31 27.55741 -82.37367 4566 ft 283 kts 169°
2026-04-27 00:32 27.53816 -82.36909 4444 ft 283 kts 169°
2026-04-27 00:32 27.51893 -82.36446 4321 ft 282 kts 169°
2026-04-27 00:32 27.49976 -82.35992 4186 ft 281 kts 169°
2026-04-27 00:32 27.48063 -82.35544 4077 ft 281 kts 169°
2026-04-27 00:33 27.46147 -82.35099 3953 ft 280 kts 170°
2026-04-27 00:33 27.44238 -82.34659 3831 ft 279 kts 170°
2026-04-27 00:33 27.42337 -82.34221 3717 ft 280 kts 170°
2026-04-27 00:33 27.40424 -82.33781 3588 ft 279 kts 170°
2026-04-27 00:34 27.38529 -82.33345 3467 ft 278 kts 170°
2026-04-27 00:34 27.36636 -82.32910 3343 ft 277 kts 170°
2026-04-27 00:34 27.34746 -82.32476 3220 ft 277 kts 169°
2026-04-27 00:34 27.32889 -82.32050 3103 ft 276 kts 170°
2026-04-27 00:35 27.31000 -82.31617 3006 ft 276 kts 170°
2026-04-27 00:35 27.29123 -82.31186 2999 ft 276 kts 169°
2026-04-27 00:35 27.27286 -82.30763 2993 ft 258 kts 170°
2026-04-27 00:35 27.25592 -82.30373 3000 ft 239 kts 170°
2026-04-27 00:36 27.23996 -82.30007 3003 ft 232 kts 170°
2026-04-27 00:36 27.22407 -82.29644 2998 ft 233 kts 170°
2026-04-27 00:36 27.20817 -82.29281 2995 ft 234 kts 171°
2026-04-27 00:36 27.19240 -82.28921 2998 ft 234 kts 171°
2026-04-27 00:37 27.17658 -82.28462 2884 ft 235 kts 162°
2026-04-27 00:37 27.16146 -82.27760 2769 ft 235 kts 156°
2026-04-27 00:37 27.14691 -82.26924 2643 ft 234 kts 153°
2026-04-27 00:37 27.13274 -82.26027 2529 ft 234 kts 151°
2026-04-27 00:38 27.11864 -82.25108 2494 ft 234 kts 151°
2026-04-27 00:38 27.10459 -82.24194 2490 ft 233 kts 152°
2026-04-27 00:38 27.09042 -82.23288 2499 ft 234 kts 152°
2026-04-27 00:38 27.07619 -82.22393 2500 ft 234 kts 152°
2026-04-27 00:39 27.06199 -82.21512 2500 ft 234 kts 153°
2026-04-27 00:39 27.04771 -82.20632 2503 ft 234 kts 153°
2026-04-27 00:39 27.03356 -82.19766 2523 ft 231 kts 153°
2026-04-27 00:39 27.01939 -82.18899 2499 ft 232 kts 153°
2026-04-27 00:40 27.00518 -82.18030 2495 ft 233 kts 153°
2026-04-27 00:40 26.99101 -82.17163 2492 ft 232 kts 153°
2026-04-27 00:40 26.97683 -82.16295 2499 ft 232 kts 153°
2026-04-27 00:40 26.96268 -82.15428 2501 ft 232 kts 153°
2026-04-27 00:41 26.94850 -82.14561 2499 ft 232 kts 153°
2026-04-27 00:41 26.93433 -82.13693 2501 ft 232 kts 152°
2026-04-27 00:41 26.92031 -82.12835 2495 ft 231 kts 153°
2026-04-27 00:41 26.90619 -82.11971 2500 ft 232 kts 153°
2026-04-27 00:42 26.89203 -82.11105 2499 ft 232 kts 153°
2026-04-27 00:42 26.87786 -82.10238 2500 ft 231 kts 153°
2026-04-27 00:42 26.86372 -82.09374 2499 ft 232 kts 153°
2026-04-27 00:42 26.84957 -82.08509 2482 ft 232 kts 153°
2026-04-27 00:43 26.83542 -82.07645 2502 ft 232 kts 153°
2026-04-27 00:43 26.82126 -82.06780 2488 ft 232 kts 153°
2026-04-27 00:43 26.80707 -82.05915 2500 ft 232 kts 153°
2026-04-27 00:43 26.79289 -82.05049 2501 ft 232 kts 153°
2026-04-27 00:44 26.77868 -82.04182 2499 ft 232 kts 152°
2026-04-27 00:44 26.76454 -82.03319 2488 ft 231 kts 152°
2026-04-27 00:44 26.75035 -82.02453 2497 ft 233 kts 153°
2026-04-27 00:44 26.73634 -82.01599 2498 ft 232 kts 153°
2026-04-27 00:45 26.72236 -82.00689 2481 ft 233 kts 144°
2026-04-27 00:45 26.71173 -81.99324 2488 ft 234 kts 117°
2026-04-27 00:45 26.70856 -81.97637 2491 ft 212 kts 82°
2026-04-27 00:45 26.71288 -81.96176 2496 ft 187 kts 59°
2026-04-27 00:46 26.71893 -81.94997 2515 ft 171 kts 54°
2026-04-27 00:46 26.72543 -81.93841 2496 ft 178 kts 54°
2026-04-27 00:46 26.73208 -81.92669 2493 ft 179 kts 54°
2026-04-27 00:46 26.73873 -81.91494 2494 ft 179 kts 54°
2026-04-27 00:47 26.74674 -81.90444 2465 ft 176 kts 36°
2026-04-27 00:47 26.75745 -81.89820 2107 ft 174 kts
2026-04-27 00:47 26.76910 -81.89815 1929 ft 162 kts 343°
2026-04-27 00:47 26.77902 -81.90268 1837 ft 147 kts 329°
2026-04-27 00:48 26.78741 -81.90814 1734 ft 135 kts 326°
2026-04-27 00:48 26.79518 -81.91340 1603 ft 127 kts 327°
2026-04-27 00:48 26.80246 -81.91831 1643 ft 117 kts 326°
2026-04-27 00:48 26.80935 -81.92295 1609 ft 115 kts 327°
2026-04-27 00:49 26.81628 -81.92761 1606 ft 117 kts 327°
2026-04-27 00:49 26.82328 -81.93229 1601 ft 117 kts 327°
2026-04-27 00:49 26.83026 -81.93696 1596 ft 117 kts 328°
2026-04-27 00:49 26.83723 -81.94161 1595 ft 116 kts 326°
2026-04-27 00:50 26.84420 -81.94625 1495 ft 117 kts 326°
2026-04-27 00:50 26.85810 -81.95551 1185 ft 115 kts 325°
2026-04-27 00:50 26.86495 -81.96008 1038 ft 115 kts 327°
2026-04-27 00:51 26.87172 -81.96459 878 ft 114 kts 327°
2026-04-27 00:51 26.87852 -81.96909 733 ft 114 kts 325°
2026-04-27 00:51 26.88533 -81.97364 603 ft 114 kts 325°
2026-04-27 00:51 26.89214 -81.97818 447 ft 114 kts 327°
2026-04-27 00:52 26.89899 -81.98268 275 ft 115 kts 327°
2026-04-27 00:52 26.90364 -81.98587 219 ft 116 kts 323°
2026-04-27 00:52 26.91260 -81.99200 56 ft 107 kts 330°
2026-04-27 00:52 26.91834 -81.99583 32 ft 76 kts 333°
2026-04-27 00:53 26.92201 -81.99814 30 ft 49 kts 329°
2026-04-27 00:53 26.92321 -81.99899 33 ft 18 kts 313°
2026-04-27 00:53 26.92308 -82.00016 33 ft 10 kts 233°
2026-04-27 00:53 26.92306 -82.00019 31 ft 0 kts 231°
2026-04-27 00:54 26.92285 -82.00031 33 ft 12 kts 193°
2026-04-27 00:54 26.92130 -81.99949 31 ft 22 kts 150°
2026-04-27 00:54 26.92039 -81.99891 31 ft 23 kts 149°
2026-04-27 00:54 26.91899 -81.99797 30 ft 23 kts 149°
2026-04-27 00:55 26.91758 -81.99705 31 ft 19 kts 150°
2026-04-27 00:55 26.91659 -81.99652 32 ft 10 kts 177°
2026-04-27 00:55 26.91616 -81.99698 33 ft 8 kts 239°
2026-04-27 00:55 26.91614 -81.99702 32 ft 0 kts 239°